Location: *
(49.3500°N, 12.6000°E)
Time: 01:03:19
(UTC+00:00)

Cosmos 1726 - Pass Details

Date: 18 October 2019
Orbit: 483 x 500 km, 82.5° (Epoch: 18 November)

Event Time Altitude Azimuth Distance (km) Brightness Sun altitude
Rises 18:03:46 0° 209° (SSW) 2,549 6.0 -18.6°
Reaches altitude 10° 18:05:59 10° 219° (SW) 1,671 5.2 -18.9°
Maximum altitude 18:09:22 35° 286° (WNW) 812 3.8 -19.5°
Drops below altitude 10° 18:12:45 10° 353° (N) 1,679 5.0 -20.0°
Sets 18:15:00 0° 3° (N) 2,564 5.8 -20.4°
